AC5CM Weather Reports


time (UTC)temp
C
wind
direction
speed
KPH
gust
KPH
rain 1hr
cm
rain 24hr
cm
rain mn
cm
humidity
%
barometer
mb
20260506014946 25 168 3.2 6.4 0.00 0.00 0.00 86 1008.7
20260506014443 25 129 3.2 11.3 0.00 0.00 0.00 85 1008.9
20260506013939 25 128 4.8 9.7 0.00 0.00 0.00 85 1008.5
20260506013437 25 134 0.0 11.3 0.00 0.00 0.00 85 1008.5
20260506012933 25 181 6.4 11.3 0.00 0.00 0.00 85 1008.6
20260506012430 25 180 0.0 4.8 0.00 0.00 0.00 85 1008.6
20260506011927 25 149 6.4 11.3 0.00 0.00 0.00 85 1008.5
20260506011424 26 222 3.2 9.7 0.00 0.00 0.00 84 1008.3
20260506010921 26 91 6.4 11.3 0.00 0.00 0.00 84 1008.4
20260506010420 26 256 1.6 4.8 0.00 0.00 0.00 84 1008.3
20260506005915 26 110 6.4 9.7 0.00 0.00 0.00 84 1008.1
20260506005414 26 356 1.6 11.3 0.00 0.00 0.00 84 1008.1
20260506004909 26 169 6.4 9.7 0.00 0.00 0.00 83 1008.0
20260506004407 26 82 3.2 6.4 0.00 0.00 0.00 83 1008.1
20260506003902 26 197 6.4 11.3 0.00 0.00 0.00 83 1007.9
20260506003359 26 164 4.8 11.3 0.00 0.00 0.00 83 1008.0
20260506002855 26 116 6.4 11.3 0.00 0.00 0.00 82 1007.8
20260506002352 26 145 3.2 9.7 0.00 0.00 0.00 82 1008.0
20260506001848 26 125 1.6 12.9 0.00 0.00 0.00 82 1007.8
20260506001344 26 132 6.4 14.5 0.00 0.00 0.00 82 1007.8
20260506000841 26 124 8.0 14.5 0.00 0.00 0.00 81 1007.8
20260506000340 26 123 8.0 16.1 0.00 0.00 0.00 81 1008.0
20260505235836 26 120 8.0 12.9 0.00 0.00 0.00 81 1007.9
20260505235333 26 123 3.2 12.9 0.00 0.00 0.00 81 1007.7
20260505234830 26 114 3.2 16.1 0.00 0.00 0.00 80 1007.8
20260505234328 26 135 3.2 12.9 0.00 0.00 0.00 80 1007.9
20260505233825 26 90 3.2 11.3 0.00 0.00 0.00 80 1007.9
20260505233323 26 126 3.2 9.7 0.00 0.00 0.00 80 1007.9
20260505232820 27 81 6.4 11.3 0.00 0.00 0.00 80 1007.6
20260505232317 27 146 8.0 9.7 0.00 0.00 0.00 79 1007.9
20260505231814 27 123 1.6 4.8 0.00 0.00 0.00 80 1007.9
20260505231312 27 246 4.8 6.4 0.00 0.00 0.00 79 1008.2
20260505230810 27 179 4.8 16.1 0.00 0.00 0.00 79 1008.0
20260505230307 27 157 6.4 11.3 0.00 0.00 0.00 79 1008.1
20260505225803 27 134 6.4 9.7 0.00 0.00 0.00 78 1007.9
20260505225300 27 133 8.0 14.5 0.00 0.00 0.00 78 1007.9
20260505224755 27 148 8.0 14.5 0.00 0.00 0.00 77 1008.1
20260505224253 27 284 6.4 11.3 0.00 0.00 0.00 77 1008.0
20260505223751 27 130 4.8 9.7 0.00 0.00 0.00 76 1008.1
20260505223247 27 164 3.2 9.7 0.00 0.00 0.00 76 1007.9
20260505222743 28 310 4.8 12.9 0.00 0.00 0.00 76 1008.0
20260505222239 27 142 9.7 14.5 0.00 0.00 0.00 76 1008.1
20260505221737 28 146 6.4 11.3 0.00 0.00 0.00 76 1008.1
20260505221233 28 106 9.7 17.7 0.00 0.00 0.00 75 1008.2
20260505220730 28 233 0.0 11.3 0.00 0.00 0.00 75 1008.3
20260505220227 28 157 8.0 14.5 0.00 0.00 0.00 73 1008.2
20260505215726 28 167 3.2 6.4 0.00 0.00 0.00 75 1008.0
20260505215223 28 123 6.4 12.9 0.00 0.00 0.00 75 1008.1
20260505214720 28 130 6.4 6.4 0.00 0.00 0.00 76 1008.3
20260505214218 28 249 3.2 6.4 0.00 0.00 0.00 76 1008.4
20260505213715 28 331 1.6 9.7 0.00 0.00 0.00 76 1008.6
20260505213212 28 135 6.4 11.3 0.00 0.00 0.00 76 1008.5
20260505212708 28 5 1.6 11.3 0.00 0.00 0.00 76 1008.6
20260505212206 28 120 3.2 16.1 0.00 0.00 0.00 76 1008.7
20260505211702 27 161 3.2 6.4 0.00 0.00 0.00 76 1008.6
20260505211200 28 133 6.4 12.9 0.00 0.00 0.00 75 1008.6
20260505210656 28 274 3.2 9.7 0.00 0.00 0.00 74 1008.7
20260505210153 28 25 3.2 9.7 0.00 0.00 0.00 74 1008.8
20260505205650 28 244 4.8 11.3 0.00 0.00 0.00 73 1009.1
20260505205148 28 340 1.6 9.7 0.00 0.00 0.00 72 1009.1
20260505204645 28 148 6.4 6.4 0.00 0.00 0.00 73 1009.1
20260505204143 28 140 1.6 11.3 0.00 0.00 0.00 73 1009.2
20260505203640 28 166 6.4 14.5 0.00 0.00 0.00 73 1009.3
20260505203136 29 51 3.2 11.3 0.00 0.00 0.00 72 1009.4
20260505202632 29 89 4.8 9.7 0.00 0.00 0.00 72 1009.3
20260505202128 28 101 1.6 11.3 0.00 0.00 0.00 73 1009.7
20260505201625 28 142 6.4 12.9 0.00 0.00 0.00 74 1009.4
20260505201123 28 160 8.0 14.5 0.00 0.00 0.00 74 1009.5
20260505200621 28 102 4.8 14.5 0.00 0.00 0.00 75 1009.7
20260505200118 28 103 4.8 6.4 0.00 0.00 0.00 74 1009.7
20260505195614 28 215 4.8 6.4 0.00 0.00 0.00 75 1009.6
20260505195111 28 99 4.8 9.7 0.00 0.00 0.00 75 1009.6
20260505194608 28 25 1.6 6.4 0.00 0.00 0.00 73 1009.7
20260505194104 28 176 6.4 6.4 0.00 0.00 0.00 74 1009.8
20260505193601 28 125 3.2 6.4 0.00 0.00 0.00 74 1010.0
20260505193058 28 173 3.2 6.4 0.00 0.00 0.00 74 1010.0
20260505192557 28 126 4.8 11.3 0.00 0.00 0.00 74 1009.9
20260505192054 28 169 4.8 9.7 0.00 0.00 0.00 75 1010.0
20260505191552 28 151 1.6 4.8 0.00 0.00 0.00 75 1010.0
20260505191049 28 94 4.8 6.4 0.00 0.00 0.00 74 1009.8
20260505190544 28 15 3.2 17.7 0.00 0.00 0.00 73 1009.9
20260505190040 28 95 3.2 11.3 0.00 0.00 0.00 75 1010.1
20260505185537 28 88 3.2 11.3 0.00 0.00 0.00 76 1009.9
20260505185033 28 116 6.4 11.3 0.00 0.00 0.00 76 1010.0
20260505184530 28 116 1.6 4.8 0.00 0.00 0.00 77 1010.1
20260505184027 28 46 4.8 12.9 0.00 0.00 0.00 76 1010.3
20260505183524 27 285 3.2 4.8 0.00 0.00 0.00 77 1010.2
20260505183021 27 142 1.6 11.3 0.00 0.00 0.00 79 1010.2
20260505182518 27 279 9.7 11.3 0.00 0.00 0.00 77 1010.3
20260505182015 27 200 3.2 4.8 0.00 0.00 0.00 77 1010.3
20260505181511 27 160 1.6 4.8 0.00 0.00 0.00 77 1010.3
20260505181008 27 144 12.9 20.9 0.00 0.00 0.00 76 1010.4
20260505180503 27 168 9.7 11.3 0.00 0.00 0.00 77 1010.5
20260505175000 27 57 3.2 9.7 0.00 0.00 0.00 77 1010.6
20260505174457 27 57 3.2 9.7 0.00 0.00 0.00 77 1010.6
20260505173953 27 212 3.2 6.4 0.00 0.00 0.00 78 1010.6
20260505173449 27 266 0.0 11.3 0.00 0.00 0.00 79 1010.6
20260505172946 27 117 3.2 14.5 0.00 0.00 0.00 80 1010.6
20260505172445 26 193 1.6 6.4 0.00 0.00 0.00 80 1010.6
20260505171944 26 139 1.6 4.8 0.00 0.00 0.00 81 1010.7
20260505171441 26 200 1.6 6.4 0.00 0.00 0.00 81 1010.9
20260505170937 26 123 3.2 6.4 0.00 0.00 0.00 81 1010.8
20260505170434 26 115 3.2 4.8 0.00 0.00 0.00 80 1010.9
20260505165930 26 84 6.4 6.4 0.00 0.00 0.00 80 1010.8
20260505165426 26 100 1.6 6.4 0.00 0.00 0.00 80 1010.7
20260505164921 26 118 3.2 12.9 0.00 0.00 0.00 80 1010.9
20260505164418 27 141 8.0 12.9 0.00 0.00 0.00 79 1010.7
20260505163916 26 138 0.0 4.8 0.00 0.00 0.00 80 1010.8
20260505163415 27 129 3.2 4.8 0.00 0.00 0.00 79 1010.6
20260505162914 27 92 4.8 6.4 0.00 0.00 0.00 80 1010.8
20260505162409 26 261 0.0 11.3 0.00 0.00 0.00 82 1010.8
20260505161906 26 202 3.2 11.3 0.00 0.00 0.00 81 1010.6
20260505161403 26 110 3.2 6.4 0.00 0.00 0.00 81 1010.9
20260505160900 26 130 4.8 4.8 0.00 0.00 0.00 81 1010.8
20260505160358 26 270 3.2 4.8 0.00 0.00 0.00 81 1010.5
20260505151149 25 146 11.3 14.5 0.00 0.00 0.00 82 1010.3
20260505150645 25 146 11.3 14.5 0.00 0.00 0.00 82 1010.3
20260505150142 26 119 6.4 14.5 0.00 0.00 0.00 83 1010.4
20260505140611 24 133 1.6 4.8 0.00 0.00 0.00 88 1010.5
20260505140108 24 145 4.8 11.3 0.00 0.00 0.00 88 1010.3
20260505125024 23 79 0.0 3.2 0.00 0.00 0.00 92 1010.1
20260505124521 22 137 3.2 9.7 0.00 0.00 0.00 92 1009.9
20260505124017 22 132 0.0 1.6 0.00 0.00 0.00 93 1010.0
20260505123514 22 112 0.0 1.6 0.00 0.00 0.00 93 1010.1
20260505123010 22 135 0.0 3.2 0.00 0.00 0.00 93 1009.8
20260505122507 22 147 6.4 6.4 0.00 0.00 0.00 93 1009.9
20260505122004 22 81 3.2 3.2 0.00 0.00 0.00 93 1009.7
20260505121500 22 123 1.6 3.2 0.00 0.00 0.00 93 1009.6
20260505120957 22 143 3.2 6.4 0.00 0.00 0.00 93 1009.3
20260505120453 22 146 3.2 6.4 0.00 0.00 0.00 92 1009.5
20260505115952 22 144 3.2 3.2 0.00 0.00 0.00 92 1009.4
20260505115449 22 140 0.0 3.2 0.00 0.00 0.00 92 1009.7
20260505114947 22 124 1.6 3.2 0.00 0.00 0.00 92 1009.8
20260505114443 22 135 3.2 4.8 0.00 0.00 0.00 93 1010.0
20260505113940 22 131 3.2 3.2 0.00 0.00 0.00 92 1009.7
20260505113436 22 130 1.6 3.2 0.00 0.00 0.00 92 1009.7
20260505112932 22 139 4.8 6.4 0.00 0.00 0.00 92 1009.5
20260505112430 22 129 3.2 4.8 0.00 0.00 0.00 92 1009.5
20260505111926 22 164 0.0 4.8 0.00 0.00 0.00 93 1009.4
20260505111420 22 130 3.2 4.8 0.00 0.00 0.00 93 1009.4
20260505110917 22 140 0.0 6.4 0.00 0.00 0.00 93 1009.8
20260505110414 21 124 0.0 3.2 0.00 0.00 0.00 93 1009.7
20260505101845 21 137 1.6 3.2 0.00 0.00 0.00 92 1009.6
20260505101339 21 136 0.0 3.2 0.00 0.00 0.00 93 1009.7
20260505100835 21 106 0.0 0.0 0.00 0.00 0.00 93 1009.9
20260505100332 21 124 1.6 1.6 0.00 0.00 0.00 93 1009.9
20260505095828 21 131 0.0 1.6 0.00 0.00 0.00 92 1009.8
20260505095326 21 132 1.6 3.2 0.00 0.00 0.00 92 1009.8
20260505094822 21 132 3.2 6.4 0.00 0.00 0.00 92 1009.6
20260505094319 21 129 0.0 4.8 0.00 0.00 0.00 92 1009.6
20260505093814 21 137 3.2 4.8 0.00 0.00 0.00 92 1009.7
20260505093312 21 147 3.2 3.2 0.00 0.00 0.00 92 1009.9
20260505092808 21 135 1.6 4.8 0.00 0.00 0.00 92 1009.8
20260505092307 21 146 1.6 3.2 0.00 0.00 0.00 92 1010.1
20260505091804 21 124 1.6 1.6 0.00 0.00 0.00 92 1009.9
20260505091302 21 134 1.6 3.2 0.00 0.00 0.00 92 1010.1
20260505090800 21 139 0.0 1.6 0.00 0.00 0.00 92 1010.0
20260505090258 21 142 0.0 1.6 0.00 0.00 0.00 92 1010.0
20260505085755 21 106 3.2 4.8 0.00 0.00 0.00 92 1010.1
20260505085253 21 136 1.6 3.2 0.00 0.00 0.00 92 1010.1
20260505084750 21 120 1.6 3.2 0.00 0.00 0.00 92 1010.0
20260505084249 21 132 0.0 1.6 0.00 0.00 0.00 92 1010.2
20260505083745 21 145 0.0 1.6 0.00 0.00 0.00 92 1010.2
20260505083242 21 227 0.0 1.6 0.00 0.00 0.00 92 1010.1
20260505082739 21 146 0.0 3.2 0.00 0.00 0.00 92 1009.9
20260505082236 21 142 3.2 3.2 0.00 0.00 0.00 92 1010.2
20260505081732 20 152 0.0 3.2 0.00 0.00 0.00 93 1010.2
20260505081229 20 114 1.6 3.2 0.00 0.00 0.00 93 1010.1
20260505080726 20 105 0.0 0.0 0.00 0.00 0.00 92 1010.3
20260505080221 20 144 1.6 4.8 0.00 0.00 0.00 92 1010.1
20260505075717 20 146 3.2 3.2 0.00 0.00 0.00 92 1010.2
20260505075215 20 132 0.0 3.2 0.00 0.00 0.00 92 1010.3
20260505074712 20 144 0.0 3.2 0.00 0.00 0.00 91 1010.5
20260505074209 20 120 0.0 1.6 0.00 0.00 0.00 91 1010.3
20260505073706 20 141 0.0 3.2 0.00 0.00 0.00 91 1010.4
20260505073204 20 151 1.6 4.8 0.00 0.00 0.00 91 1010.5
20260505072700 20 140 3.2 9.7 0.00 0.00 0.00 91 1010.4
20260505072156 20 128 3.2 3.2 0.00 0.00 0.00 90 1010.6
20260505071652 20 128 1.6 6.4 0.00 0.00 0.00 90 1010.6
20260505071150 20 152 1.6 9.7 0.00 0.00 0.00 90 1010.7
20260505070647 20 152 3.2 4.8 0.00 0.00 0.00 90 1011.0
20260505070143 20 146 3.2 6.4 0.00 0.00 0.00 90 1010.8
20260505065639 20 107 4.8 4.8 0.00 0.00 0.00 90 1010.8
20260505065136 20 142 1.6 4.8 0.00 0.00 0.00 90 1010.9
20260505064633 20 134 1.6 4.8 0.00 0.00 0.00 90 1011.0
20260505064131 20 152 3.2 4.8 0.00 0.00 0.00 90 1011.2
20260505063628 20 130 0.0 3.2 0.00 0.00 0.00 90 1011.3
20260505063124 20 100 0.0 4.8 0.00 0.00 0.00 90 1011.3
20260505062621 20 135 1.6 3.2 0.00 0.00 0.00 90 1011.3
20260505062118 20 124 0.0 3.2 0.00 0.00 0.00 89 1011.5
20260505061615 20 153 1.6 1.6 0.00 0.00 0.00 89 1011.6
20260505061113 20 155 1.6 3.2 0.00 0.00 0.00 89 1011.6
20260505060610 20 138 0.0 4.8 0.00 0.00 0.00 88 1011.5
20260505060107 20 154 1.6 4.8 0.00 0.00 0.00 88 1011.4
20260505055602 20 149 3.2 6.4 0.00 0.00 0.00 88 1011.5
20260505055059 20 104 1.6 4.8 0.00 0.00 0.00 88 1011.5
20260505054556 20 138 1.6 4.8 0.00 0.00 0.00 88 1011.6
20260505054055 20 139 3.2 4.8 0.00 0.00 0.00 87 1011.6
20260505053551 20 260 3.2 4.8 0.00 0.00 0.00 87 1011.7
20260505053048 20 125 3.2 4.8 0.00 0.00 0.00 87 1011.9
20260505052545 20 136 3.2 4.8 0.00 0.00 0.00 87 1011.9
20260505052043 20 131 0.0 3.2 0.00 0.00 0.00 87 1011.8
20260505051539 20 129 1.6 3.2 0.00 0.00 0.00 86 1011.7
20260505051037 20 105 1.6 4.8 0.00 0.00 0.00 86 1011.9
20260505050535 20 151 4.8 4.8 0.00 0.00 0.00 86 1011.9
20260505041503 21 99 6.4 6.4 0.00 0.00 0.00 83 1012.1
20260505041000 21 158 3.2 4.8 0.00 0.00 0.00 83 1012.2
20260505040457 21 148 1.6 6.4 0.00 0.00 0.00 83 1012.1
20260505035954 21 131 3.2 4.8 0.00 0.00 0.00 83 1011.9
20260505035450 21 119 0.0 4.8 0.00 0.00 0.00 82 1012.1
20260505034948 21 150 3.2 4.8 0.00 0.00 0.00 82 1012.2
20260505034444 21 135 3.2 4.8 0.00 0.00 0.00 82 1012.3
20260505033941 21 117 3.2 4.8 0.00 0.00 0.00 82 1012.4
20260505033438 21 142 4.8 6.4 0.00 0.00 0.00 82 1012.3
20260505032936 21 131 0.0 3.2 0.00 0.00 0.00 81 1012.4
20260505032433 21 146 1.6 3.2 0.00 0.00 0.00 81 1012.2
20260505031929 21 152 4.8 6.4 0.00 0.00 0.00 81 1012.4
20260505031427 21 153 6.4 6.4 0.00 0.00 0.00 80 1012.3
20260505030923 21 106 1.6 6.4 0.00 0.00 0.00 80 1012.3
20260505030419 22 137 0.0 4.8 0.00 0.00 0.00 79 1012.5
20260505025915 22 103 0.0 4.8 0.00 0.00 0.00 79 1012.3
20260505025412 22 121 1.6 4.8 0.00 0.00 0.00 78 1012.4
20260505024911 22 121 1.6 4.8 0.00 0.00 0.00 78 1012.3
20260505024408 22 151 6.4 9.7 0.00 0.00 0.00 77 1012.3
20260505023905 22 130 3.2 6.4 0.00 0.00 0.00 77 1012.3
20260505023402 22 139 3.2 6.4 0.00 0.00 0.00 77 1012.2
20260505022859 22 134 1.6 9.7 0.00 0.00 0.00 77 1012.2
20260505022356 22 185 6.4 11.3 0.00 0.00 0.00 76 1012.1
20260505021854 22 315 1.6 4.8 0.00 0.00 0.00 77 1012.2
20260505021350 22 117 3.2 6.4 0.00 0.00 0.00 76 1012.1
20260505020846 22 138 9.7 12.9 0.00 0.00 0.00 76 1012.2
20260505020341 22 164 6.4 9.7 0.00 0.00 0.00 76 1012.1
20260505015838 22 128 3.2 4.8 0.00 0.00 0.00 76 1012.2